Location: Ferchesar
(52.6477°N, 12.4298°E)
Time: 12:44:18
(UTC+02:00)

Transit 4A - Pass Details

Date: 27 February 2021
Orbit: 869 x 975 km, 66.8° (Epoch: 15 April)

Event Time Altitude Azimuth Distance (km) Brightness Sun altitude
Rises 20:30:58 0° 318° (NW) 3,593 12.0 -25.4°
Reaches altitude 10° 20:33:39 10° 312° (NW) 2,628 11.2 -25.8°
Maximum altitude 20:39:18 41° 244° (WSW) 1,283 8.8 -26.6°
Enters shadow 20:42:01 26° 193° (SSW) 1,683 9.1 -27.0°
Drops below altitude 10° 20:44:47 10° 176° (S) 2,547 - -27.4°
Sets 20:47:21 0° 169° (S) 3,470 - -27.7°
